Weather History for Orange City, IA

Change the Weather History Date:

Wednesday, April 16, 2014

  Actual Average Record
Temperature  
Mean Temperature 44 °F -  
Max Temperature 59 °F 58 °F 84 °F (2002)
Min Temperature 30 °F 37 °F 23 °F (1949)
Degree Days  
Heating Degree Days 20    
Moisture  
Dew Point 28 °F    
Average Humidity 59    
Maximum Humidity 87    
Minimum Humidity 26    
Precipitation  
Precipitation 0.07 in - - ()
Sea Level Pressure  
Sea Level Pressure 29.76 in    
Wind  
Wind Speed 16 mph (SSW)    
Max Wind Speed 25 mph    
Max Gust Speed 32 mph    
Visibility 10 miles    
Events Rain    
Averages and records for this station are not official NWS values.
T = Trace of Precipitation, MM = Missing Value Source: NWS Daily Summary

Daily Weather History Graph

Daily Weather History Graph

Search for Another Location

Airport:

Trip Planner

Search our weather history database for the weather conditions in past years. The results will help you decide how hot, cold, wet, or windy it might be!

Date:

Astronomy

Apr. 16, 2014 Rise Set
Actual Time 6:40 AM CDT 8:07 PM CDT
Civil Twilight 6:11 AM CDT 8:37 PM CDT
Nautical Twilight 5:35 AM CDT 9:13 PM CDT
Astronomical Twilight 4:57 AM CDT 9:51 PM CDT
Moon 9:55 PM CDT (4/16) 7:27 AM CDT (4/16)
Length of Visible Light 14h 26m
Length of Day
13h 27m
Full, 98% of the Moon is Illuminated
Apr 16
Full
Apr 22
Last Quarter
Apr 29
New
May 6
First Quarter
May 14
Full

Hourly Weather History & Observations

Time (CDT) Temp. Windchill Dew Point Humidity Pressure Visibility Wind Dir Wind Speed Gust Speed Precip Events Conditions
12:15 AM 39.2 °F 31.2 °F 26.6 °F 61% 29.78 in 10.0 mi SE 13.8 mph 20.7 mph N/A   Mostly Cloudy
12:35 AM 39.2 °F 31.6 °F 26.6 °F 61% 29.78 in 10.0 mi SE 12.7 mph 19.6 mph N/A   Mostly Cloudy
12:55 AM 39.2 °F 31.6 °F 26.6 °F 61% 29.77 in 10.0 mi SE 12.7 mph 19.6 mph N/A   Scattered Clouds
1:15 AM 39.2 °F 32.0 °F 26.6 °F 61% 29.76 in 10.0 mi SE 11.5 mph 20.7 mph N/A   Scattered Clouds
1:35 AM 37.4 °F 30.3 °F 26.6 °F 65% 29.75 in 10.0 mi SE 10.4 mph 17.3 mph N/A   Scattered Clouds
1:55 AM 37.4 °F 30.3 °F 28.4 °F 70% 29.74 in 10.0 mi SE 10.4 mph 18.4 mph N/A   Mostly Cloudy
2:15 AM 37.4 °F 30.8 °F 28.4 °F 70% 29.73 in 10.0 mi SE 9.2 mph 16.1 mph N/A   Scattered Clouds
2:35 AM 39.2 °F 33.0 °F 28.4 °F 65% 29.72 in 10.0 mi SE 9.2 mph 17.3 mph N/A   Scattered Clouds
2:55 AM 39.2 °F 33.0 °F 28.4 °F 65% 29.71 in 10.0 mi SE 9.2 mph - N/A   Mostly Cloudy
3:15 AM 39.2 °F 33.6 °F 28.4 °F 65% 29.70 in 10.0 mi SE 8.1 mph - N/A   Mostly Cloudy
3:35 AM 41.0 °F 34.3 °F 28.4 °F 61% 29.70 in 10.0 mi SSE 11.5 mph - N/A   Mostly Cloudy
3:55 AM 42.8 °F 36.6 °F 28.4 °F 57% 29.69 in 10.0 mi SSE 11.5 mph 17.3 mph N/A   Mostly Cloudy
4:15 AM 42.8 °F 36.2 °F 28.4 °F 57% 29.69 in 10.0 mi SSE 12.7 mph 17.3 mph N/A   Mostly Cloudy
4:35 AM 42.8 °F 36.2 °F 28.4 °F 57% 29.68 in 10.0 mi SSE 12.7 mph 18.4 mph N/A   Mostly Cloudy
5:15 AM 42.8 °F 37.5 °F 28.4 °F 57% 29.67 in 10.0 mi SSE 9.2 mph - N/A   Scattered Clouds
5:35 AM 44.6 °F 37.8 °F 26.6 °F 49% 29.67 in 10.0 mi South 15.0 mph 20.7 mph N/A   Mostly Cloudy
5:55 AM 46.4 °F 38.3 °F 26.6 °F 46% 29.67 in 10.0 mi South 23.0 mph 31.1 mph N/A   Mostly Cloudy
6:15 AM 46.4 °F 39.2 °F 26.6 °F 46% 29.68 in 10.0 mi South 18.4 mph 25.3 mph N/A   Mostly Cloudy
6:35 AM 46.4 °F 40.4 °F 26.6 °F 46% 29.67 in 10.0 mi South 13.8 mph 26.5 mph N/A   Mostly Cloudy
6:55 AM 44.6 °F 36.4 °F 26.6 °F 49% 29.66 in 10.0 mi South 20.7 mph 29.9 mph N/A   Mostly Cloudy
7:15 AM 44.6 °F 36.6 °F 26.6 °F 49% 29.66 in 10.0 mi South 19.6 mph 26.5 mph N/A   Scattered Clouds
7:35 AM 44.6 °F 36.6 °F 26.6 °F 49% 29.66 in 10.0 mi South 19.6 mph 27.6 mph N/A   Clear
7:55 AM 44.6 °F 36.6 °F 26.6 °F 49% 29.67 in 10.0 mi South 19.6 mph 28.8 mph N/A   Scattered Clouds
8:15 AM 46.4 °F 39.0 °F 26.6 °F 46% 29.65 in 10.0 mi South 19.6 mph 26.5 mph N/A   Scattered Clouds
8:35 AM 46.4 °F 38.5 °F 24.8 °F 43% 29.64 in 10.0 mi South 21.9 mph 27.6 mph N/A   Scattered Clouds
8:55 AM 46.4 °F 38.5 °F 24.8 °F 43% 29.66 in 10.0 mi South 21.9 mph 29.9 mph N/A   Scattered Clouds
9:15 AM 46.4 °F 38.5 °F 26.6 °F 46% 29.67 in 10.0 mi South 21.9 mph 27.6 mph N/A   Scattered Clouds
9:35 AM 48.2 °F - 26.6 °F 43% 29.66 in 10.0 mi South 23.0 mph 31.1 mph N/A   Scattered Clouds
9:55 AM 48.2 °F - 24.8 °F 40% 29.66 in 10.0 mi South 24.2 mph 29.9 mph N/A   Scattered Clouds
10:15 AM 48.2 °F - 26.6 °F 43% 29.68 in 10.0 mi South 19.6 mph 25.3 mph N/A   Scattered Clouds
10:35 AM 48.2 °F - 26.6 °F 43% 29.69 in 10.0 mi South 17.3 mph 25.3 mph N/A   Scattered Clouds
10:55 AM 48.2 °F - 26.6 °F 43% 29.69 in 10.0 mi South 17.3 mph 21.9 mph N/A   Scattered Clouds
11:15 AM 50.0 °F - 26.6 °F 40% 29.68 in 10.0 mi South 15.0 mph - N/A   Clear
11:35 AM 51.8 °F - 24.8 °F 35% 29.67 in 10.0 mi South 24.2 mph 27.6 mph N/A   Clear
11:55 AM 51.8 °F - 26.6 °F 38% 29.67 in 10.0 mi South 23.0 mph 28.8 mph N/A   Clear
12:15 PM 51.8 °F - 24.8 °F 35% 29.66 in 10.0 mi SSW 20.7 mph 31.1 mph N/A   Clear
12:35 PM 51.8 °F - 24.8 °F 35% 29.65 in 10.0 mi South 21.9 mph 28.8 mph N/A   Clear
1:15 PM 55.4 °F - 24.8 °F 31% 29.65 in 10.0 mi SSW 25.3 mph - N/A   Clear
1:35 PM 55.4 °F - 21.2 °F 26% 29.65 in 10.0 mi SSW 21.9 mph 31.1 mph N/A   Clear
1:55 PM 55.4 °F - 21.2 °F 26% 29.65 in 10.0 mi SSW 23.0 mph 29.9 mph N/A   Clear
2:15 PM 55.4 °F - 23.0 °F 29% 29.65 in 10.0 mi SW 16.1 mph - N/A   Clear
2:35 PM 57.2 °F - 24.8 °F 29% 29.65 in 10.0 mi SW 15.0 mph 26.5 mph N/A   Scattered Clouds
2:55 PM 59.0 °F - 24.8 °F 27% 29.65 in 10.0 mi SW 23.0 mph 27.6 mph N/A   Scattered Clouds
3:15 PM 55.4 °F - 24.8 °F 31% 29.66 in 10.0 mi SW 16.1 mph 26.5 mph N/A   Mostly Cloudy
3:35 PM 53.6 °F - 28.4 °F 38% 29.67 in 10.0 mi WSW 12.7 mph 19.6 mph N/A   Light Drizzle
3:55 PM 53.6 °F - 28.4 °F 38% 29.67 in 10.0 mi SW 9.2 mph - N/A   Overcast
4:15 PM 48.2 °F - 37.4 °F 66% 29.69 in 10.0 mi West 13.8 mph - N/A   Drizzle
4:35 PM 44.6 °F 40.2 °F 39.2 °F 81% 29.69 in 7.0 mi West 8.1 mph 12.7 mph 0.02 in Rain Rain
4:55 PM 44.6 °F 39.7 °F 39.2 °F 81% 29.71 in 7.0 mi WNW 9.2 mph - 0.02 in   Drizzle
5:15 PM 42.8 °F 35.1 °F 37.4 °F 81% 29.73 in 10.0 mi North 16.1 mph 24.2 mph N/A   Light Drizzle
5:35 PM 39.2 °F 29.8 °F 35.6 °F 87% 29.76 in 10.0 mi North 18.4 mph 28.8 mph 0.01 in Rain Rain
5:55 PM 39.2 °F 30.8 °F 35.6 °F 87% 29.79 in 10.0 mi North 15.0 mph 25.3 mph 0.02 in Rain Light Rain
6:15 PM 39.2 °F 30.2 °F 35.6 °F 87% 29.80 in 10.0 mi North 17.3 mph 23.0 mph 0.02 in Rain Light Rain
6:35 PM 37.4 °F 27.8 °F 33.8 °F 87% 29.83 in 10.0 mi NNW 17.3 mph 27.6 mph 0.03 in Rain Light Rain
6:55 PM 35.6 °F 24.8 °F 32.0 °F 87% 29.85 in 10.0 mi North 19.6 mph 26.5 mph 0.03 in   Drizzle
7:15 PM 33.8 °F 21.6 °F 28.4 °F 81% 29.87 in 10.0 mi North 23.0 mph 32.2 mph N/A   Overcast
7:35 PM 33.8 °F 22.5 °F 28.4 °F 81% 29.90 in 10.0 mi North 19.6 mph 26.5 mph N/A   Overcast
7:55 PM 32.0 °F 19.8 °F 26.6 °F 80% 29.91 in 10.0 mi North 20.7 mph 31.1 mph N/A   Overcast
8:15 PM 32.0 °F 19.5 °F 26.6 °F 80% 29.92 in 10.0 mi NNW 21.9 mph 26.5 mph N/A   Overcast
8:35 PM 32.0 °F 20.5 °F 26.6 °F 80% 29.96 in 10.0 mi NNW 18.4 mph 29.9 mph N/A   Overcast
8:55 PM 32.0 °F 20.8 °F 26.6 °F 80% 29.98 in 10.0 mi NNW 17.3 mph 24.2 mph N/A   Overcast
9:15 PM 30.2 °F 17.8 °F 26.6 °F 86% 29.99 in 10.0 mi NNW 19.6 mph 27.6 mph N/A   Overcast
9:35 PM 30.2 °F 16.8 °F 26.6 °F 86% 30.01 in 10.0 mi North 23.0 mph 28.8 mph N/A   Overcast
9:55 PM 30.2 °F 19.3 °F 26.6 °F 86% 30.03 in 10.0 mi North 15.0 mph 26.5 mph N/A   Overcast
10:15 PM 30.2 °F 18.1 °F 26.6 °F 86% 30.04 in 10.0 mi North 18.4 mph 25.3 mph N/A   Overcast
10:35 PM 30.2 °F 18.1 °F 26.6 °F 86% 30.05 in 10.0 mi North 18.4 mph 25.3 mph N/A   Overcast
10:55 PM 30.2 °F 18.1 °F 24.8 °F 80% 30.06 in 10.0 mi North 18.4 mph 25.3 mph N/A   Overcast
11:15 PM 30.2 °F 18.9 °F 24.8 °F 80% 30.07 in 10.0 mi North 16.1 mph 24.2 mph N/A   Overcast
11:35 PM 30.2 °F 18.1 °F 24.8 °F 80% 30.07 in 10.0 mi North 18.4 mph 24.2 mph N/A   Overcast
11:55 PM 30.2 °F 18.5 °F 24.8 °F 80% 30.08 in 10.0 mi North 17.3 mph 24.2 mph N/A   Overcast